Poplar Bluff, MO

6:33 AM CDT on August 21, 2019 (GMT -0500)
Poplar Bluff Municipal

Weather History for KPOF - June, 2019

Change the Weather History Date:

Monday, June 10, 2019

  Actual Average Record
Temperature  
Mean Temperature 71 °F -  
Max Temperature 80 °F 85 °F 99 °F (1933)
Min Temperature 61 °F 63 °F 50 °F (1930)
Cooling Degree Days 6    
Growing Degree Days 21 (Base 50)    
Moisture  
Dew Point 55 °F    
Average Humidity 57    
Maximum Humidity 87    
Minimum Humidity 35    
Precipitation  
Precipitation 0.00 in - - ()
Sea Level Pressure  
Sea Level Pressure 30.12 in    
Wind  
Wind Speed 13 mph (North)    
Max Wind Speed 21 mph    
Max Gust Speed 29 mph    
Visibility 10 miles    
Events Rain    
Averages and records for this station are not official NWS values.
T = Trace of Precipitation, MM = Missing Value Source: NWS Daily Summary

Daily Weather History Graph

Daily Weather History Graph

Search for Another Location

Airport or City:

Astronomy

Jun. 10, 2019 Rise Set
Actual Time 5:41 AM CDT 8:19 PM CDT
Civil Twilight 5:11 AM CDT 8:50 PM CDT
Nautical Twilight 4:33 AM CDT 9:28 PM CDT
Astronomical Twilight 3:51 AM CDT 10:10 PM CDT
Moon 1:23 PM CDT (6/10) 1:40 AM CDT (6/10)
Length of Visible Light 15h 38m
Length of Day
14h 37m
First Quarter, 55% of the Moon is Illuminated
Jun 10
First Quarter
Jun 17
Full
Jun 25
Last Quarter
Jul 2
New
Jul 9
First Quarter

Hourly Weather History & Observations

Time (CDT) Temp. Dew Point Humidity Pressure Visibility Wind Dir Wind Speed Gust Speed Precip Events Conditions
12:53 AM 73.9 °F 70.0 °F 87% 29.96 in 10.0 mi NW 10.4 mph - N/A   Clear
1:53 AM 75.0 °F 69.1 °F 82% 29.97 in 10.0 mi NW 9.2 mph - N/A   Overcast
2:53 AM 75.0 °F 68.0 °F 79% 29.99 in 10.0 mi NNW 15.0 mph 25.3 mph N/A   Overcast
3:53 AM 73.0 °F 64.9 °F 76% 30.00 in 10.0 mi NNW 15.0 mph 27.6 mph 0.00 in Rain Light Rain
4:53 AM 71.1 °F 61.0 °F 70% 30.03 in 10.0 mi North 16.1 mph 24.2 mph 0.00 in Rain Light Rain
5:53 AM 69.1 °F 57.0 °F 65% 30.06 in 10.0 mi NNW 16.1 mph 24.2 mph 0.00 in Rain Light Rain
6:53 AM 69.1 °F 54.0 °F 58% 30.11 in 10.0 mi NNW 17.3 mph 24.2 mph 0.00 in Rain Light Rain
7:53 AM 69.1 °F 53.1 °F 57% 30.12 in 10.0 mi North 17.3 mph - 0.00 in Rain Light Rain
8:53 AM 70.0 °F 53.1 °F 55% 30.14 in 10.0 mi North 19.6 mph 25.3 mph 0.00 in Rain Light Rain
9:53 AM 72.0 °F 53.1 °F 51% 30.15 in 10.0 mi North 15.0 mph 27.6 mph 0.00 in   Clear
10:53 AM 73.9 °F 52.0 °F 46% 30.17 in 10.0 mi North 18.4 mph 28.8 mph N/A   Clear
11:53 AM 75.9 °F 52.0 °F 43% 30.17 in 10.0 mi North 17.3 mph 25.3 mph N/A   Clear
12:53 PM 77.0 °F 51.1 °F 40% 30.17 in 10.0 mi NNE 17.3 mph 28.8 mph N/A   Clear
1:53 PM 78.1 °F 51.1 °F 39% 30.17 in 10.0 mi NNE 20.7 mph 27.6 mph N/A   Clear
2:53 PM 79.0 °F 51.1 °F 38% 30.16 in 10.0 mi North 16.1 mph 24.2 mph N/A   Clear
3:53 PM 79.0 °F 48.9 °F 35% 30.16 in 10.0 mi North 19.6 mph 27.6 mph N/A   Clear
4:53 PM 79.0 °F 48.9 °F 35% 30.16 in 10.0 mi North 16.1 mph - N/A   Clear
5:53 PM 78.1 °F 51.1 °F 39% 30.16 in 10.0 mi North 12.7 mph - N/A   Clear
6:53 PM 75.9 °F 51.1 °F 42% 30.16 in 10.0 mi North 10.4 mph - N/A   Clear
7:53 PM 72.0 °F 54.0 °F 53% 30.17 in 10.0 mi North 6.9 mph - N/A   Clear
8:53 PM 66.0 °F 54.0 °F 65% 30.18 in 10.0 mi North 4.6 mph - N/A   Clear
9:53 PM 63.0 °F 55.9 °F 78% 30.19 in 10.0 mi North 4.6 mph - N/A   Clear
10:53 PM 64.9 °F 51.1 °F 61% 30.20 in 10.0 mi NNW 3.5 mph - N/A   Clear
11:53 PM 61.0 °F 54.0 °F 78% 30.20 in 10.0 mi Calm Calm - N/A   Clear